Weather History for Woensdrecht, Netherlands

Change the Weather History Date:

Thursday, November 28, 2013

  Actual Average Record
Temperature  
Mean Temperature 44 °F -  
Max Temperature 50 °F 42 °F 59 °F (2000)
Min Temperature 39 °F 34 °F 21 °F (2010)
Degree Days  
Heating Degree Days 20    
Moisture  
Dew Point 46 °F    
Average Humidity 98    
Maximum Humidity 100    
Minimum Humidity 87    
Precipitation  
Precipitation 0.00 in - - ()
Sea Level Pressure  
Sea Level Pressure 30.49 in    
Wind  
Wind Speed 5 mph ()    
Max Wind Speed 8 mph    
Max Gust Speed -    
Visibility 2.6 miles    
Events Fog , Rain    
Averages and records for this station are not official NWS values.
T = Trace of Precipitation, MM = Missing Value Source: Averaged Metar Reports

Daily Weather History Graph

Daily Weather History Graph

Search for Another Location

Airport:

Trip Planner

Search our weather history database for the weather conditions in past years. The results will help you decide how hot, cold, wet, or windy it might be!

Date:

Astronomy

Nov. 28, 2013 Rise Set
Actual Time 8:21 AM CET 4:39 PM CET
Civil Twilight 7:42 AM CET 5:18 PM CET
Nautical Twilight 7:00 AM CET 5:59 PM CET
Astronomical Twilight 6:20 AM CET 6:39 PM CET
Moon 2:35 AM CET (11/28) 2:09 PM CET (11/28)
Length of Visible Light 9h 35m
Length of Day
8h 17m
Waning Crescent, 25% of the Moon is Illuminated
Nov 28
Waning Crescent
Dec 3
New
Dec 9
First Quarter
Dec 17
Full
Dec 25
Last Quarter

Hourly Weather History & Observations

Time (CET) Temp. Windchill Dew Point Humidity Pressure Visibility Wind Dir Wind Speed Gust Speed Precip Events Conditions
12:04 AM 44.6 °F 40.2 °F 41.0 °F 87% 30.51 in - WSW 8.1 mph - N/A   Overcast
12:25 AM 42.8 °F 38.0 °F 42.8 °F 100% 30.51 in 1.6 mi WSW 8.1 mph - N/A   Light Drizzle
12:29 AM 42.8 °F 38.0 °F 42.8 °F 100% 30.51 in 1.6 mi WSW 8.1 mph - N/A   Overcast
12:55 AM 42.8 °F 38.0 °F 42.8 °F 100% 30.51 in 1.3 mi WSW 8.1 mph - N/A   Overcast
1:19 AM 42.8 °F 38.6 °F 42.8 °F 100% 30.51 in 0.9 mi SW 6.9 mph - N/A   Mostly Cloudy
1:25 AM 42.8 °F 38.6 °F 42.8 °F 100% 30.51 in 0.9 mi SW 6.9 mph - N/A   Mostly Cloudy
1:37 AM 42.8 °F 38.6 °F 42.8 °F 100% 30.48 in 0.9 mi SW 6.9 mph - N/A   Mostly Cloudy
1:41 AM 42.8 °F 38.6 °F 42.8 °F 100% 30.48 in 0.9 mi WSW 6.9 mph - N/A   Mostly Cloudy
1:55 AM 42.8 °F 38.6 °F 42.8 °F 100% 30.51 in 0.8 mi WSW 6.9 mph - N/A   Mostly Cloudy
2:25 AM 44.6 °F 40.7 °F 42.8 °F 93% 30.48 in 0.7 mi SW 6.9 mph - N/A   Overcast
2:55 AM 44.6 °F 40.2 °F 44.6 °F 100% 30.48 in 0.7 mi WSW 8.1 mph - N/A   Overcast
3:25 AM 44.6 °F 40.7 °F 44.6 °F 100% 30.48 in 0.8 mi WSW 6.9 mph - N/A   Mostly Cloudy
3:55 AM 44.6 °F 40.7 °F 44.6 °F 100% 30.48 in 0.8 mi WSW 6.9 mph - N/A   Mostly Cloudy
4:25 AM 44.6 °F 40.7 °F 44.6 °F 100% 30.48 in 0.8 mi WSW 6.9 mph - N/A   Mostly Cloudy
4:55 AM 44.6 °F 40.7 °F 44.6 °F 100% 30.48 in 0.7 mi WSW 6.9 mph - N/A   Mostly Cloudy
5:25 AM 44.6 °F 40.7 °F 44.6 °F 100% 30.48 in 0.7 mi WSW 6.9 mph - N/A   Mostly Cloudy
5:43 AM 44.6 °F 40.7 °F 44.6 °F 100% 30.48 in 0.7 mi WSW 6.9 mph - N/A   Mostly Cloudy
5:55 AM 44.6 °F 40.7 °F 44.6 °F 100% 30.48 in 0.7 mi WSW 6.9 mph - N/A   Overcast
6:25 AM 44.6 °F 40.7 °F 44.6 °F 100% 30.48 in 0.8 mi WSW 6.9 mph - N/A   Scattered Clouds
6:29 AM 44.6 °F 41.4 °F 44.6 °F 100% 30.48 in 0.8 mi WSW 5.8 mph - N/A   Mostly Cloudy
6:55 AM 44.6 °F 41.4 °F 44.6 °F 100% 30.48 in 0.8 mi WSW 5.8 mph - N/A   Partly Cloudy
7:20 AM 44.6 °F 42.2 °F 44.6 °F 100% 30.48 in 0.8 mi SW 4.6 mph - N/A   Drizzle
7:25 AM 44.6 °F 42.2 °F 44.6 °F 100% 30.48 in 0.9 mi SW 4.6 mph - N/A   Drizzle
7:55 AM 46.4 °F 43.5 °F 44.6 °F 93% 30.48 in 0.9 mi WSW 5.8 mph - N/A   Mostly Cloudy
8:25 AM 46.4 °F 43.5 °F 46.4 °F 100% 30.48 in 0.8 mi SW 5.8 mph - N/A   Mostly Cloudy
8:36 AM 46.4 °F 44.3 °F 46.4 °F 100% 30.48 in 0.8 mi SW 4.6 mph - N/A   Mostly Cloudy
8:55 AM 46.4 °F 44.3 °F 46.4 °F 100% 30.48 in 0.7 mi WSW 4.6 mph - N/A   Mostly Cloudy
9:25 AM 46.4 °F 45.2 °F 46.4 °F 100% 30.51 in 0.7 mi WSW 3.5 mph - N/A   Mostly Cloudy
9:32 AM 46.4 °F 45.2 °F 46.4 °F 100% 30.51 in 0.8 mi WSW 3.5 mph - N/A   Mostly Cloudy
9:43 AM 46.4 °F 45.2 °F 46.4 °F 100% 30.51 in 1.1 mi WSW 3.5 mph - N/A   Mostly Cloudy
9:47 AM 46.4 °F 45.2 °F 46.4 °F 100% 30.51 in 1.1 mi WSW 3.5 mph - N/A   Mostly Cloudy
9:55 AM 46.4 °F 44.3 °F 46.4 °F 100% 30.51 in 1.1 mi WSW 4.6 mph - N/A   Mostly Cloudy
10:03 AM 46.4 °F 44.3 °F 46.4 °F 100% 30.51 in 0.9 mi WSW 4.6 mph - N/A   Overcast
10:08 AM 46.4 °F 44.3 °F 46.4 °F 100% 30.51 in 1.0 mi WSW 4.6 mph - N/A   Overcast
10:21 AM 48.2 °F - 48.2 °F 100% 30.51 in 1.1 mi WSW 3.5 mph - N/A   Overcast
10:25 AM 48.2 °F - 48.2 °F 100% 30.51 in 1.1 mi WSW 3.5 mph - N/A   Overcast
10:42 AM 48.2 °F - 48.2 °F 100% 30.51 in 1.1 mi WSW 3.5 mph - N/A   Overcast
10:55 AM 48.2 °F - 48.2 °F 100% 30.51 in 1.3 mi West 3.5 mph - N/A   Overcast
10:59 AM 48.2 °F - 48.2 °F 100% 30.51 in 1.4 mi West 4.6 mph - N/A   Overcast
11:25 AM 48.2 °F - 48.2 °F 100% 30.51 in 1.3 mi West 4.6 mph - N/A   Overcast
11:31 AM 48.2 °F - 48.2 °F 100% 30.51 in 1.3 mi WNW 4.6 mph - N/A   Overcast
11:35 AM 48.2 °F - 48.2 °F 100% 30.51 in 1.2 mi WNW 4.6 mph - N/A Rain Light Rain
11:50 AM 48.2 °F - 48.2 °F 100% 30.51 in 0.9 mi WNW 4.6 mph - N/A   Heavy Drizzle
11:55 AM 48.2 °F - 48.2 °F 100% 30.51 in 0.9 mi WNW 3.5 mph - N/A   Heavy Drizzle
12:03 PM 48.2 °F - 48.2 °F 100% 30.51 in 0.9 mi WNW 3.5 mph - N/A   Heavy Drizzle
12:17 PM 48.2 °F - 48.2 °F 100% 30.48 in 1.1 mi WNW 3.5 mph - N/A   Drizzle
12:21 PM 48.2 °F - 48.2 °F 100% 30.48 in 0.9 mi WNW 3.5 mph - N/A   Light Drizzle
12:25 PM 48.2 °F - 48.2 °F 100% 30.48 in 0.9 mi WNW 2.3 mph - N/A   Drizzle
12:30 PM 48.2 °F - 48.2 °F 100% 30.48 in 1.2 mi WNW 2.3 mph - N/A   Light Drizzle
12:34 PM 48.2 °F - 48.2 °F 100% 30.48 in 1.2 mi WNW 1.2 mph - N/A   Mostly Cloudy
12:38 PM 48.2 °F - 48.2 °F 100% 30.48 in 1.1 mi WNW 2.3 mph - N/A   Mostly Cloudy
12:55 PM 50.0 °F - 48.2 °F 94% 30.48 in 0.9 mi NNW 2.3 mph - N/A   Overcast
12:59 PM 50.0 °F - 50.0 °F 100% 30.48 in 1.1 mi NNW 3.5 mph - N/A   Overcast
1:12 PM 50.0 °F - 48.2 °F 94% 30.48 in - North 4.6 mph - N/A   Overcast
1:25 PM 50.0 °F - 50.0 °F 100% 30.48 in 3.1 mi North 3.5 mph - N/A   Mostly Cloudy
1:42 PM 50.0 °F - 48.2 °F 94% 30.48 in 3.7 mi North 3.5 mph - N/A   Mostly Cloudy
1:45 PM 50.0 °F - 48.2 °F 94% 30.48 in 3.7 mi North 4.6 mph - N/A   Overcast
1:55 PM 50.0 °F - 48.2 °F 94% 30.48 in 3.1 mi North 3.5 mph - N/A   Overcast
2:01 PM 50.0 °F - 48.2 °F 94% 30.48 in 3.7 mi North 2.3 mph - N/A   Overcast
2:06 PM 50.0 °F - 48.2 °F 94% 30.48 in 3.1 mi North 3.5 mph - N/A   Overcast
2:25 PM 50.0 °F - 48.2 °F 94% 30.48 in 3.7 mi NNE 3.5 mph - N/A   Overcast
2:28 PM 50.0 °F - 48.2 °F 94% 30.48 in 3.7 mi North 3.5 mph - N/A   Overcast
2:34 PM 50.0 °F - 48.2 °F 94% 30.48 in 3.7 mi North 3.5 mph - N/A   Overcast
2:35 PM 50.0 °F - 48.2 °F 94% 30.48 in 3.7 mi North 3.5 mph - N/A   Overcast
2:55 PM 50.0 °F - 48.2 °F 94% 30.48 in 3.1 mi North 2.3 mph - N/A   Overcast
2:56 PM 50.0 °F - 48.2 °F 94% 30.48 in 3.1 mi North 2.3 mph - N/A   Overcast
3:03 PM 50.0 °F - 48.2 °F 94% 30.48 in 3.1 mi North 2.3 mph - N/A   Overcast
3:05 PM 50.0 °F - 48.2 °F 94% 30.48 in 3.1 mi North 2.3 mph - N/A   Overcast
3:13 PM 50.0 °F - 48.2 °F 94% 30.48 in 3.1 mi North 2.3 mph - N/A   Overcast
3:25 PM 50.0 °F - 48.2 °F 94% 30.48 in 3.7 mi North 2.3 mph - N/A   Overcast
3:32 PM 50.0 °F - 48.2 °F 94% 30.48 in 3.7 mi North 2.3 mph - N/A   Overcast
3:44 PM 50.0 °F - 48.2 °F 94% 30.48 in 4.3 mi NNW 2.3 mph - N/A   Overcast
3:48 PM 50.0 °F - 48.2 °F 94% 30.48 in 5.0 mi NNW 2.3 mph - N/A   Mostly Cloudy
3:55 PM 50.0 °F - 48.2 °F 94% 30.48 in 5.0 mi North 1.2 mph - N/A   Overcast
3:59 PM 50.0 °F - 48.2 °F 94% 30.48 in 5.0 mi NNW 1.2 mph - N/A   Overcast
4:04 PM 50.0 °F - 48.2 °F 94% 30.48 in 4.3 mi NW 1.2 mph - N/A   Overcast
4:07 PM 50.0 °F - 48.2 °F 94% 30.48 in 4.3 mi NW 1.2 mph - N/A   Overcast
4:14 PM 50.0 °F - 48.2 °F 94% 30.48 in 4.3 mi NW 1.2 mph - N/A   Mostly Cloudy
4:25 PM 50.0 °F - 48.2 °F 94% 30.48 in 4.3 mi NW 2.3 mph - N/A   Overcast
4:29 PM 50.0 °F - 48.2 °F 94% 30.48 in - NW 2.3 mph - N/A   Overcast
4:43 PM 48.2 °F - 48.2 °F 100% 30.48 in 3.1 mi NW 2.3 mph - N/A   Overcast
4:47 PM 48.2 °F - 48.2 °F 100% 30.48 in 3.1 mi NW 2.3 mph - N/A   Mostly Cloudy
4:55 PM 48.2 °F - 48.2 °F 100% 30.48 in 3.1 mi North 2.3 mph - N/A   Mostly Cloudy
5:05 PM 48.2 °F - 48.2 °F 100% 30.48 in 4.3 mi NNW 2.3 mph - N/A   Overcast
5:09 PM 48.2 °F - 48.2 °F 100% 30.48 in 5.0 mi NNW 2.3 mph - N/A   Overcast
5:13 PM 48.2 °F - 48.2 °F 100% 30.48 in 5.0 mi NNW 2.3 mph - N/A   Mostly Cloudy
5:14 PM 48.2 °F - 48.2 °F 100% 30.48 in 5.0 mi North 2.3 mph - N/A   Mostly Cloudy
5:25 PM 48.2 °F - 48.2 °F 100% 30.48 in 4.3 mi North 2.3 mph - N/A   Overcast
5:26 PM 48.2 °F - 48.2 °F 100% 30.48 in 4.3 mi North 3.5 mph - N/A   Mostly Cloudy
5:36 PM 48.2 °F - 48.2 °F 100% 30.48 in 5.0 mi North 3.5 mph - N/A   Mostly Cloudy
5:41 PM 48.2 °F - 48.2 °F 100% 30.48 in 5.6 mi North 4.6 mph - N/A   Mostly Cloudy
5:45 PM 48.2 °F - 48.2 °F 100% 30.48 in 5.6 mi North 5.8 mph - N/A   Mostly Cloudy
5:55 PM 48.2 °F - 46.4 °F 93% 30.48 in 6.2 mi NNE 5.8 mph - N/A   Overcast
6:25 PM 48.2 °F - 44.6 °F 87% 30.48 in 6.2 mi NNE 4.6 mph - N/A   Overcast
6:55 PM 46.4 °F 45.2 °F 44.6 °F 93% 30.48 in 6.2 mi North 3.5 mph - N/A   Overcast
7:25 PM 46.4 °F 45.2 °F 44.6 °F 93% 30.51 in 6.2 mi NNE 3.5 mph - N/A   Overcast
7:55 PM 46.4 °F 45.2 °F 44.6 °F 93% 30.51 in 6.2 mi NNE 3.5 mph - N/A   Overcast
8:25 PM 44.6 °F - 44.6 °F 100% 30.51 in 6.2 mi NNW 2.3 mph - N/A   Overcast
8:55 PM 44.6 °F - 42.8 °F 93% 30.51 in 6.2 mi NW 2.3 mph - N/A   Overcast
9:25 PM 42.8 °F - 42.8 °F 100% 30.51 in 6.2 mi NNW 2.3 mph - N/A   Mostly Cloudy
9:46 PM 42.8 °F - 41.0 °F 93% 30.51 in 4.3 mi West 1.2 mph - N/A   Overcast
9:55 PM 41.0 °F - 41.0 °F 100% 30.51 in 4.3 mi WSW 1.2 mph - N/A   Overcast
10:01 PM 41.0 °F - 41.0 °F 100% 30.51 in - WSW 1.2 mph - N/A   Overcast
10:05 PM 41.0 °F - 41.0 °F 100% 30.51 in 2.2 mi West 1.2 mph - N/A   Overcast
10:11 PM 41.0 °F - 39.2 °F 93% 30.51 in 0.3 mi West 1.2 mph - N/A Fog Fog
10:25 PM 39.2 °F - 39.2 °F 100% 30.51 in 1.2 mi WSW 1.2 mph - N/A   Overcast
10:36 PM 41.0 °F - 41.0 °F 100% 30.51 in 3.7 mi WSW 2.3 mph - N/A   Overcast
10:47 PM 39.2 °F - 39.2 °F 100% 30.51 in 2.8 mi WSW 2.3 mph - N/A   Overcast
10:51 PM 41.0 °F - 41.0 °F 100% 30.51 in - WSW 2.3 mph - N/A   Overcast
10:55 PM 41.0 °F - 39.2 °F 93% 30.51 in - WSW 2.3 mph - N/A   Overcast
10:56 PM 41.0 °F - 41.0 °F 100% 30.51 in 3.7 mi WSW 2.3 mph - N/A   Overcast
11:03 PM 41.0 °F - 41.0 °F 100% 30.51 in 5.6 mi SW 2.3 mph - N/A   Overcast
11:15 PM 41.0 °F - 39.2 °F 93% 30.51 in 3.7 mi WSW 2.3 mph - N/A   Mostly Cloudy
11:21 PM 41.0 °F - 39.2 °F 93% 30.51 in 0.9 mi WSW 2.3 mph - N/A   Mostly Cloudy
11:25 PM 41.0 °F - 41.0 °F 100% 30.51 in 0.8 mi WSW 2.3 mph - N/A   Mostly Cloudy
11:29 PM 41.0 °F - 41.0 °F 100% 30.51 in 1.4 mi WSW 2.3 mph - N/A   Mostly Cloudy
11:33 PM 41.0 °F - 41.0 °F 100% 30.51 in 3.1 mi SW 2.3 mph - N/A   Overcast
11:35 PM 41.0 °F - 41.0 °F 100% 30.51 in - SW 2.3 mph - N/A   Overcast
11:41 PM 41.0 °F - 41.0 °F 100% 30.48 in 3.1 mi SW 2.3 mph - N/A   Overcast
11:45 PM 41.0 °F 39.0 °F 41.0 °F 100% 30.48 in 2.8 mi WSW 3.5 mph - N/A   Overcast
11:50 PM 41.0 °F 38.0 °F 41.0 °F 100% 30.48 in 3.1 mi WSW 4.6 mph - N/A   Overcast
11:55 PM 42.8 °F 41.1 °F 41.0 °F 93% 30.48 in 3.1 mi WSW 3.5 mph - N/A   Overcast